CDT,Max TemperatureF,Mean TemperatureF,Min TemperatureF,Max Dew PointF,MeanDew PointF,Min DewpointF,Max Humidity, Mean Humidity, Min Humidity, Max Sea Level PressureIn, Mean Sea Level PressureIn, Min Sea Level PressureIn, Max VisibilityMiles, Mean VisibilityMiles, Min VisibilityMiles, Max Wind SpeedMPH, Mean Wind SpeedMPH, Max Gust SpeedMPH,PrecipitationIn, CloudCover, Events, WindDirDegrees
2012-8-1,99,89,78,76,74,68,85,62,38,29.99,29.93,29.86,10,10,10,9,5,16,0.00,0,,213
2012-8-2,99,89,79,75,72,63,85,59,33,29.95,29.88,29.82,10,10,9,14,5,17,0.00,0,,206
2012-8-3,96,87,78,75,73,68,91,67,42,29.95,29.89,29.84,10,10,9,16,7,20,0.00,0,,212
2012-8-4,98,88,78,75,72,68,85,64,42,30.03,29.98,29.90,10,10,10,13,5,18,0.00,0,,192
2012-8-5,94,86,77,79,75,71,94,72,49,30.15,30.08,30.01,10,9,2,8,2,10,0.12,2,Rain-Thunderstorm,164
2012-8-6,100,87,73,75,71,69,93,66,39,30.09,30.01,29.94,10,10,8,24,3,31,0.01,1,Rain-Thunderstorm,35
2012-8-7,99,87,74,75,72,68,94,67,39,30.03,29.95,29.89,10,10,6,21,3,25,0.00,2,Thunderstorm,207
2012-8-8,98,85,72,76,72,65,94,65,35,30.02,29.96,29.89,10,9,3,15,3,18,0.01,0,Rain,195
2012-8-9,98,85,72,75,72,69,94,69,43,29.96,29.88,29.78,10,9,2,30,8,44,0.27,2,Rain-Thunderstorm,220
2012-8-10,98,86,73,75,72,67,94,65,35,29.89,29.85,29.78,10,10,3,17,6,22,0.00,2,Rain-Thunderstorm,244
2012-8-11,92,81,69,72,66,63,93,66,38,30.01,29.93,29.86,10,8,1,13,6,16,0.00,0,,52
2012-8-12,93,81,68,73,69,62,79,64,49,30.03,29.97,29.91,10,10,10,12,5,15,0.00,2,,158
2012-8-13,97,88,78,76,73,71,85,65,45,30.00,29.92,29.84,10,10,10,20,8,28,0.00,3,Thunderstorm,208
2012-8-14,96,84,72,72,68,63,87,61,34,29.99,29.94,29.88,10,10,9,12,4,15,0.00,1,,32
2012-8-15,92,82,72,74,70,65,93,73,52,30.00,29.95,29.91,10,10,7,12,3,15,0.00,2,,59
2012-8-16,95,85,74,75,72,68,93,69,44,30.03,29.98,29.91,10,8,2,20,5,24,0.00,2,,205
2012-8-17,96,84,71,76,71,64,91,66,41,30.07,29.98,29.88,10,8,0,51,6,63,1.33,3,Fog-Rain-Thunderstorm,252
2012-8-18,81,76,71,75,72,69,100,87,74,30.01,29.92,29.87,10,8,0,31,4,39,1.77,4,Fog-Rain-Thunderstorm,142
2012-8-19,89,79,69,72,70,68,100,77,53,29.94,29.90,29.85,10,8,0,17,4,24,0.09,5,Fog-Rain,191
2012-8-20,89,79,68,71,68,59,100,70,39,29.95,29.93,29.89,10,8,1,14,5,23,0.25,5,Rain-Thunderstorm,24
2012-8-21,88,77,65,70,65,62,97,70,43,30.06,30.03,29.96,10,9,4,9,2,13,0.00,0,,60
2012-8-22,91,77,63,66,63,54,100,65,29,30.13,30.08,30.04,10,6,0,10,2,15,0.00,0,Fog,81
2012-8-23,92,77,61,64,60,53,97,63,29,30.12,30.06,30.01,10,10,4,9,3,14,0.00,0,,111
2012-8-24,87,77,67,74,70,61,100,81,61,30.05,30.00,29.96,10,9,2,23,3,29,0.27,4,Rain-Thunderstorm,130
2012-8-25,90,81,71,74,71,69,100,76,52,30.04,30.01,29.97,10,9,2,20,5,25,0.01,3,Rain-Thunderstorm,155
2012-8-26,92,81,70,74,71,67,100,72,44,30.12,30.05,29.98,10,10,7,9,2,13,0.00,0,,160
2012-8-27,95,83,71,74,70,66,93,67,41,30.06,29.98,29.90,10,10,4,10,2,15,0.00,0,,65
2012-8-28,95,83,71,72,69,66,90,66,41,29.92,29.85,29.78,10,10,7,24,10,35,0.00,3,,39
2012-8-29,90,84,77,72,71,69,82,70,57,29.78,29.73,29.64,10,10,9,32,19,43,0.06,5,Rain,45
2012-8-30,77,76,74,73,73,71,94,88,82,29.78,29.51,29.41,10,4,1,39,19,53,2.41,8,Rain,94
2012-8-31,92,83,74,78,74,70,87,76,64,30.03,29.93,29.79,10,10,7,20,11,29,T,4,Rain,172